9W2SHB-13 Weather Reports


time (UTC)temp
C
wind
direction
speed
KPH
gust
KPH
rain 1hr
cm
rain 24hr
cm
rain mn
cm
humidity
%
barometer
mb
20260504223007 28 0 0.0 0.0 0.00 0.00 0.00 69 1027.8
20260504221506 28 0 0.0 0.0 0.00 0.00 0.00 69 1027.8
20260504220007 28 0 0.0 0.0 0.00 0.00 0.00 68 1027.8
20260504214506 28 0 0.0 0.0 0.00 0.00 0.00 68 1027.9
20260504213006 28 0 0.0 0.0 0.00 0.00 0.00 68 1028.0
20260504211508 28 0 0.0 0.0 0.00 0.00 0.00 68 1028.0
20260504210006 28 0 0.0 0.0 0.00 0.00 0.00 69 1028.0
20260504204507 28 0 0.0 0.0 0.00 0.00 0.00 69 1027.9
20260504203007 29 0 0.0 0.0 0.00 0.00 0.00 69 1027.8
20260504201506 29 0 0.0 0.0 0.00 0.00 0.00 70 1027.7
20260504200006 29 0 0.0 0.0 0.00 0.00 0.00 69 1028.0
20260504194507 29 0 0.0 0.0 0.00 0.00 0.00 69 1028.4
20260504193007 29 0 0.0 0.0 0.00 0.00 0.00 69 1028.4
20260504191506 29 0 0.0 0.0 0.00 0.00 0.00 69 1028.5
20260504190006 29 0 0.0 0.0 0.00 0.00 0.00 69 1028.7
20260504184507 29 0 0.0 0.0 0.00 0.00 0.00 69 1028.8
20260504183007 29 0 0.0 0.0 0.00 0.00 0.00 69 1028.9
20260504181507 29 0 0.0 0.0 0.00 0.00 0.00 69 1029.1
20260504180006 29 0 0.0 0.0 0.00 0.00 0.00 69 1029.4
20260504174507 29 0 0.0 0.0 0.00 0.00 0.00 69 1029.6
20260504173007 29 0 0.0 0.0 0.00 0.00 0.00 69 1029.6
20260504171507 29 0 0.0 0.0 0.00 0.00 0.00 69 1029.7
20260504081507 30 0 0.0 0.0 0.00 0.00 0.00 65 1028.0
20260504050007 32 0 0.0 0.0 0.00 0.00 0.00 62 1029.6
20260504044507 32 0 0.0 0.0 0.00 0.00 0.00 62 1029.7
20260504043007 31 0 0.0 0.0 0.00 0.00 0.00 62 1030.1
20260504041508 31 0 0.0 0.0 0.00 0.00 0.00 62 1030.3
20260504040006 31 0 0.0 0.0 0.00 0.00 0.00 62 1030.5
20260504034507 31 0 0.0 0.0 0.00 0.00 0.00 64 1030.7
20260504033007 31 0 0.0 0.0 0.00 0.00 0.00 64 1030.7
20260504031507 31 0 0.0 0.0 0.00 0.00 0.00 65 1030.7
20260504030006 31 0 0.0 0.0 0.00 0.00 0.00 65 1030.8
20260504024507 30 0 0.0 0.0 0.00 0.00 0.00 66 1030.7
20260504023007 30 0 0.0 0.0 0.00 0.00 0.00 67 1030.6
20260504021506 30 0 0.0 0.0 0.00 0.00 0.00 67 1030.8
20260504020007 30 0 0.0 0.0 0.00 0.00 0.00 67 1030.8
20260504014506 30 0 0.0 0.0 0.00 0.00 0.00 67 1030.8
20260504013007 30 0 0.0 0.0 0.00 0.00 0.00 68 1030.6
20260504011507 30 0 0.0 0.0 0.00 0.00 0.00 68 1030.5
20260504010007 30 0 0.0 0.0 0.00 0.00 0.00 68 1030.3
20260504004507 29 0 0.0 0.0 0.00 0.00 0.00 68 1030.2
20260504003006 29 0 0.0 0.0 0.00 0.00 0.00 67 1030.0
20260504001507 29 0 0.0 0.0 0.00 0.00 0.00 67 1029.8
20260504000007 29 0 0.0 0.0 0.00 0.00 0.00 68 1029.4
20260503234506 29 0 0.0 0.0 0.00 0.00 0.00 68 1029.3
20260503233007 29 0 0.0 0.0 0.00 0.00 0.00 66 1029.1
20260503231507 29 0 0.0 0.0 0.00 0.00 0.00 66 1029.1
20260503230007 29 0 0.0 0.0 0.00 0.00 0.00 66 1029.0
20260503224506 29 0 0.0 0.0 0.00 0.00 0.00 66 1028.8